Preview of NWS' New Version of Forecast
This preview is not operational and should not be used for support decisions.

Regional Weather Roundup (RWR)

Issued by Gray - Portland, ME (GYX)

                            
000
ASUS41 KGYX 251205
RWRGYX
WEATHER ROUNDUP FOR MAINE AND NEW HAMPSHIRE
NATIONAL WEATHER SERVICE GRAY ME
800 AM EDT SAT MAY 25 2019

MEZ002-005-006-010-012-015-018-020-021-024-026-027-029-251300-
MAINE
  
CITY           SKY/WX    TMP DP  RH WIND       PRES   REMARKS
PORTLAND       FAIR      57  47  69 NW5       30.17S                  
6HR MIN TEMP:  45; 6HR MAX TEMP:  57;                                

SANFORD        FAIR      60  48  64 W5        30.18S                  
BAR HARBOR     FAIR      56  48  74 N3        30.14R                  
WISCASSET      FAIR      57  49  74 CALM      30.17S                  
6HR MIN TEMP:  38; 6HR MAX TEMP:  57;                                

ROCKLAND       FAIR      61  48  62 NE5       30.14S                  
FRYEBURG       FAIR      59  47  64 VRB3      30.18S                  
6HR MIN TEMP:  38; 6HR MAX TEMP:  59;                                

LEWISTONAUBURN FAIR      57  49  74 NW5       30.17                   
AUGUSTA        FAIR      56  46  69 NW5       30.16S                  
6HR MIN TEMP:  43; 6HR MAX TEMP:  56;                                

WATERVILLE     FAIR      52  48  86 CALM      30.14R                  
BANGOR         FAIR      55  47  74 CALM      30.15R                  
6HR MIN TEMP:  38; 6HR MAX TEMP:  55;                                

GREENVILLE       N/A     55  44  66 NW6       30.13S                  
6HR MIN TEMP:  45; 6HR MAX TEMP:  55;                                

MILLINOCKET    FAIR      59  45  59 W3        30.15R                  
6HR MIN TEMP:  40; 6HR MAX TEMP:  59;                                

HOULTON        FAIR      56  43  61 CALM      30.11R                  
6HR MIN TEMP:  34; 6HR MAX TEMP:  56;                                

PRESQUE ISLE   FAIR      53  44  71 CALM      30.13R                  
6HR MIN TEMP:  37; 6HR MAX TEMP:  53;                                

FRENCHVILLE    FAIR      59  39  47 NW8       30.11R                  
6HR MIN TEMP:  44; 6HR MAX TEMP:  59;                                

CARIBOU        FAIR      54  44  69 CALM      30.11R                  
6HR MIN TEMP:  42; 6HR MAX TEMP:  54;                                

$$

NHZ002-005-008-009-011-012-014-251300-
NEW HAMPSHIRE
  
CITY           SKY/WX    TMP DP  RH WIND       PRES   REMARKS
PORTSMOUTH     MOSUNNY   57  49  75 W5        30.17S                  
ROCHESTER      FAIR      57  48  72 NW7       30.18R                  
6HR MIN TEMP:  42; 6HR MAX TEMP:  57;                                

NASHUA         FAIR      56  50  80 NW3       30.21R                  
MANCHESTER     FAIR      56  48  74 CALM      30.19R                  
6HR MIN TEMP:  47; 6HR MAX TEMP:  56;                                

CONCORD        FAIR      54  47  77 CALM      30.21R                  
6HR MIN TEMP:  40; 6HR MAX TEMP:  54;                                

LACONIA        FAIR      55  48  77 W6        30.21R                  
PLYMOUTH       FAIR      47  46  98 CALM      30.21R                  
BERLIN         FAIR      46  43  89 CALM      30.21R                  
6HR MIN TEMP:  33; 6HR MAX TEMP:  46;                                

WHITEFIELD     FAIR      46  43  89 CALM      30.22R                  
6HR MIN TEMP:  32; 6HR MAX TEMP:  46;                                

JAFFREY        FAIR      53  48  83 SE3       30.22R                  
6HR MIN TEMP:  40; 6HR MAX TEMP:  53;                                

KEENE          CLOUDY    46  46 100 CALM      30.24S FOG              
LEBANON        FOG       47  44  90 W5        30.22R VSB 1/2          
6HR MIN TEMP:  45; 6HR MAX TEMP:  49;                                

MT WASHINGTON  NOT AVBL                                               
$$

VTZ005-007-008-251300-
VERMONT
  
CITY           SKY/WX    TMP DP  RH WIND       PRES   REMARKS
ST JOHNSBURY     N/A     44  44 100 MISG      30.21R                  
MONTPELIER     FOG       44  43  96 CALM      30.24R VSB 1/4          
BURLINGTON     PTSUNNY   53  49  86 E5        30.19S                  
$$

MAZ007-012-024-CTZ003-RIZ002-NYZ038-NYZ072-251300-
SOUTHERN NEW ENGLAND AND NY
  
CITY           SKY/WX    TMP DP  RH WIND       PRES   REMARKS
BOSTON         FAIR      62  44  51 NW10      30.19S                  
WORCESTER      FAIR      57  46  66 NW12      30.22R                  
NANTUCKET      FAIR      58  48  69 NW13      30.19R                  
PROVIDENCE     FAIR      58  49  72 W7        30.22R                  
HARTFORD       FAIR      59  49  69 CALM      30.23R                  
ALBANY         FAIR      56  51  84 CALM      30.22S                  
NEW YORK CITY  PTSUNNY   60  49  66 S9        30.23R                  
$$

ANZ081-ANZ082-ANZ150-NHZ014-MEZ023>029-251300-
COASTAL MARINE OBSERVATIONS
  
STATION/POSITION TIME  TEMP    WIND        PRES    WAVE
                       AIR SEA DIR/SP/G            HT/PER
                 (UTC) (F)     (DEG/KT/KT) (MB)    (FT/S)
ISLE OF SHOALS   1100   50     290/  9/ 10 1021.4R
JEFFREYS LEDGE   1138      47                N/A     3/ 7
GEORGES BANK BUO 1150   47 44  350/ 16/ 19 1020.0R   9/10
$$

.............KEY..............
   WCI - WIND CHILL
   TC  - TEMPERATURE IN CELSIUS
   VSB - VISIBILITY IN MILES
   HX  - HEAT INDEX
   FAIR- INDICATES FEW OR NO CLOUDS BELOW 12,000 FT, WITH NO 
         SIGNIFICANT WEATHER AND/OR OBSTRUCTIONS TO VISIBILITY.